STARLINK-32734

Last updated on Fri Jan 31 2025 00:02:04 GMT+0000 (Coordinated Universal Time)

1 62476U 24254Q 25030.56376232 .00000929 00000+0 21661-4 0 9995 2 62476 43.0032 137.0305 0002165 263.7747 96.2867 15.50576569 5954
UTC large
Height (km)
Speed (km/s)
/
Latitude / Longitude
Inclination (degrees)
Orbital Period (minutes)
Azimuth
Elevation
Range (km)
Doppler Factor

Next 0 passes for location: London (51.5072 / 0.1276)

Sorry there are no passes over London.